Snowfall_Accumulation
0.0 0.0 0.0 0.0 0.0 0.0 0.0 0.0 0.5 1.1 0.1 0.0 0.0 0.0 0.0 0.0 0.0 0.0 0.0 nan nan nan nan nan nan nan nan nan nan nan nan nan nan nan nan nan nan nan
0.0 0.0 0.0 0.0 0.0 0.0 0.0 0.0 0.0 0.1 0.2 0.0 0.0 0.0 0.0 0.0 0.0 0.0 0.0 nan nan nan nan nan nan nan nan nan nan nan nan nan nan nan nan nan nan nan
0.0 0.0 0.0 0.0 0.0 0.0 0.0 0.0 0.0 0.0 0.0 0.0 0.0 0.0 0.0 0.0 0.0 0.0 0.0 0.0 0.0 nan nan nan nan nan nan nan nan nan nan nan nan nan nan nan nan nan
0.0 0.0 0.0 0.0 0.0 0.0 0.0 0.0 0.0 0.0 0.0 0.0 0.0 0.0 0.0 0.0 0.0 0.0 0.0 0.0 0.0 nan nan nan nan nan nan nan nan nan nan nan nan nan nan nan nan nan
0.0 0.0 0.0 0.0 0.0 0.0 0.0 0.0 0.0 0.0 0.0 0.0 0.0 0.0 0.0 0.0 0.0 0.0 0.0 0.0 0.0 nan nan nan nan nan nan nan nan nan nan nan nan nan nan nan nan nan
0.0 0.0 0.0 0.0 0.0 0.0 0.0 0.0 0.0 0.0 0.0 0.0 0.0 0.0 0.0 0.0 0.0 0.0 0.0 0.0 0.0 0.0 nan nan nan nan nan nan nan nan nan nan nan nan nan nan nan nan
0.0 0.0 0.0 nan nan nan 0.0 0.0 0.0 0.0 0.1 0.0 0.0 0.0 0.0 0.0 0.0 0.0 0.1 0.0 0.0 0.0 0.0 0.0 0.0 0.0 0.0 nan nan nan nan nan nan nan nan nan nan nan
0.0 0.0 0.0 0.0 0.0 nan nan nan nan 0.0 0.1 0.4 0.0 0.0 0.0 0.0 0.0 0.0 0.0 0.0 0.2 0.0 0.0 0.1 0.0 0.0 0.0 0.1 nan nan nan nan nan nan nan nan nan nan
0.0 0.0 0.0 0.0 nan 0.0 nan nan nan nan 0.0 0.0 0.1 0.0 0.1 0.0 0.0 0.0 0.0 0.2 0.1 0.0 0.1 0.2 0.2 0.1 0.0 0.0 nan nan nan nan nan nan nan nan nan nan
0.0 0.0 0.0 0.0 0.0 0.0 0.1 0.0 0.0 0.0 0.0 0.0 0.0 0.0 0.0 0.0 0.0 0.0 0.1 0.1 0.1 0.0 0.0 1.3 0.3 0.4 0.2 0.0 nan nan nan nan nan nan nan nan nan nan
0.0 0.0 0.0 0.0 nan nan 0.1 0.1 0.0 0.0 nan nan nan nan nan nan nan 0.6 0.9 1.3 2.7 0.1 0.1 0.4 0.5 0.6 0.3 0.3 0.2 nan nan nan nan nan nan nan nan nan
0.0 0.0 nan 0.0 nan nan 0.2 0.2 0.4 0.0 0.0 0.0 0.0 0.0 nan nan nan 0.0 0.3 2.2 1.8 1.3 0.2 1.3 0.2 0.7 1.4 0.5 0.3 0.3 0.3 nan nan nan nan nan nan 0.0
0.5 0.4 0.3 nan nan nan nan 0.3 0.5 0.0 0.1 0.2 0.0 0.0 0.0 0.0 0.0 0.0 0.0 0.3 1.2 0.7 0.0 1.5 0.7 0.5 1.1 0.9 0.6 0.5 0.4 0.5 0.4 0.3 nan nan nan 0.1
0.5 0.5 0.7 nan nan nan 0.4 nan nan 0.3 3.1 2.7 1.9 1.1 0.8 0.6 0.0 0.1 0.0 0.0 0.0 0.2 0.2 0.1 2.4 0.8 0.9 1.1 0.8 0.5 0.5 0.7 0.7 0.7 0.7 nan nan nan
1.4 1.1 nan nan nan 0.6 nan nan 0.0 2.9 3.9 5.1 2.6 1.3 0.8 0.3 0.1 0.3 0.0 0.0 0.0 0.1 0.0 0.1 1.0 0.1 0.6 1.1 1.1 0.9 1.0 0.7 0.9 1.1 1.6 1.2 1.5 0.8
0.2 1.2 0.0 1.1 0.2 0.5 0.9 1.5 2.0 2.6 3.2 3.3 2.1 1.0 0.8 1.2 1.4 0.9 1.5 1.5 2.1 1.9 0.2 0.2 0.2 0.2 1.5 0.6 0.6 1.1 0.9 2.3 1.0 0.9 1.5 3.1 2.1 1.8
2.2 3.8 2.4 2.0 1.9 1.5 1.6 1.7 1.6 1.7 2.6 3.3 3.3 2.4 1.7 1.3 1.7 1.4 1.6 1.6 3.0 1.6 1.2 1.2 0.2 0.2 0.5 0.3 2.9 0.8 0.9 0.8 0.7 3.5 1.8 2.7 2.7 3.2
3.2 4.3 7.7 8.2 4.7 2.0 3.1 2.7 2.6 2.2 2.0 2.5 3.9 2.8 2.7 2.9 2.4 2.1 1.7 2.0 2.4 1.6 1.4 0.8 1.9 1.9 1.5 1.5 1.4 1.6 0.6 0.8 0.7 0.7 1.3 3.8 3.3 5.9
5.5 4.0 8.3 9.6 4.9 1.8 2.2 2.5 3.9 3.3 1.6 3.0 3.6 4.4 4.7 3.4 4.0 3.0 3.5 3.0 2.9 1.5 1.0 1.5 1.8 2.7 3.3 6.0 1.9 nan 2.7 1.0 2.1 2.4 1.4 2.6 5.1 3.8
2.3 3.8 5.1 5.1 2.5 1.9 2.0 2.7 3.2 4.8 5.1 3.9 5.5 8.3 9.9 6.5 5.7 3.7 3.0 4.9 2.8 1.5 1.2 0.6 1.0 1.4 3.7 10.2 10.9 5.8 nan 7.3 3.8 4.0 2.6 1.8 1.4 nan
2.6 2.2 4.3 3.0 3.2 2.7 7.6 9.1 12.1 11.0 11.1 14.8 7.8 8.3 18.2 4.7 5.3 3.6 4.0 3.3 2.6 1.1 1.3 1.2 1.1 0.0 1.3 3.3 17.0 6.8 5.3 nan 2.1 2.2 1.8 2.5 1.7 1.1
5.3 3.5 3.3 3.5 5.1 4.9 10.2 16.5 14.6 14.2 10.4 7.7 15.9 22.3 20.1 9.1 8.2 6.9 8.3 7.6 2.4 2.9 1.5 1.0 0.6 0.5 1.8 2.2 3.3 9.2 3.4 3.3 nan nan nan nan 3.3 4.8
9.6 4.2 6.1 7.7 6.4 7.7 4.6 9.1 4.0 18.2 7.5 8.1 7.8 8.3 36.0 12.5 5.8 6.3 7.0 4.3 2.6 3.0 1.9 1.9 1.0 0.7 1.3 1.1 1.8 4.0 2.9 5.2 2.1 2.0 4.6 nan nan nan
Water_Equivalent
0.00 0.00 0.00 0.00 0.00 0.00 0.00 0.00 0.12 0.21 0.01 0.00 0.00 0.00 0.00 0.00 0.00 0.00 0.00 nan nan nan nan nan nan nan nan nan nan nan nan nan nan nan nan nan nan nan
0.00 0.00 0.00 0.00 0.00 0.00 0.00 0.00 0.00 0.02 0.05 0.00 0.00 0.00 0.00 0.00 0.00 0.00 0.00 nan nan nan nan nan nan nan nan nan nan nan nan nan nan nan nan nan nan nan
0.00 0.00 0.00 0.00 0.00 0.00 0.00 0.00 0.00 0.00 0.00 0.00 0.00 0.00 0.00 0.00 0.00 0.00 0.00 0.00 0.00 nan nan nan nan nan nan nan nan nan nan nan nan nan nan nan nan nan
0.00 0.00 0.00 0.00 0.00 0.00 0.00 0.00 0.00 0.00 0.00 0.00 0.00 0.00 0.00 0.00 0.00 0.00 0.00 0.00 0.00 nan nan nan nan nan nan nan nan nan nan nan nan nan nan nan nan nan
0.00 0.00 0.00 0.00 0.00 0.00 0.00 0.00 0.00 0.00 0.00 0.00 0.00 0.00 0.00 0.00 0.00 0.00 0.00 0.00 0.00 nan nan nan nan nan nan nan nan nan nan nan nan nan nan nan nan nan
0.00 0.00 0.00 0.00 0.00 0.00 0.00 0.00 0.00 0.00 0.00 0.00 0.00 0.00 0.00 0.00 0.00 0.00 0.00 0.00 0.00 0.00 nan nan nan nan nan nan nan nan nan nan nan nan nan nan nan nan
0.00 0.00 0.00 nan nan nan 0.00 0.00 0.00 0.00 0.01 0.01 0.00 0.00 0.00 0.00 0.00 0.00 0.02 0.00 0.00 0.00 0.00 0.00 0.00 0.00 0.00 nan nan nan nan nan nan nan nan nan nan nan
0.00 0.00 0.00 0.00 0.00 nan nan nan nan 0.01 0.02 0.06 0.01 0.01 0.00 0.00 0.00 0.00 0.00 0.00 0.02 0.00 0.00 0.03 0.00 0.00 0.00 0.01 nan nan nan nan nan nan nan nan nan nan
0.00 0.00 0.00 0.00 nan 0.00 nan nan nan nan 0.00 0.01 0.01 0.01 0.02 0.00 0.00 0.00 0.00 0.03 0.02 0.00 0.02 0.07 0.05 0.04 0.00 0.00 nan nan nan nan nan nan nan nan nan nan
0.00 0.00 0.00 0.00 0.00 0.00 0.01 0.00 0.00 0.00 0.00 0.00 0.00 0.00 0.00 0.00 0.00 0.00 0.02 0.02 0.02 0.00 0.00 0.27 0.10 0.11 0.06 0.01 nan nan nan nan nan nan nan nan nan nan
0.00 0.00 0.00 0.00 nan nan 0.01 0.02 0.00 0.00 nan nan nan nan nan nan nan 0.13 0.20 0.25 0.53 0.03 0.02 0.11 0.14 0.15 0.11 0.10 0.08 nan nan nan nan nan nan nan nan nan
0.00 0.00 nan 0.00 nan nan 0.04 0.04 0.07 0.00 0.00 0.00 0.00 0.00 nan nan nan 0.00 0.07 0.37 0.32 0.24 0.05 0.23 0.04 0.13 0.29 0.13 0.10 0.10 0.10 nan nan nan nan nan nan 0.02
0.11 0.09 0.07 nan nan nan nan 0.06 0.07 0.00 0.01 0.05 0.00 0.00 0.00 0.00 0.00 0.00 0.00 0.07 0.22 0.13 0.00 0.24 0.13 0.10 0.19 0.18 0.16 0.13 0.11 0.16 0.15 0.13 nan nan nan 0.02
0.09 0.12 0.15 nan nan nan 0.08 nan nan 0.07 0.62 0.51 0.36 0.22 0.18 0.15 0.00 0.02 0.00 0.00 0.00 0.04 0.03 0.01 0.40 0.13 0.15 0.21 0.17 0.13 0.14 0.18 0.18 0.22 0.24 nan nan nan
0.31 0.24 nan nan nan 0.20 nan nan 0.00 0.56 0.73 0.84 0.45 0.24 0.17 0.06 0.01 0.08 0.01 0.01 0.01 0.02 0.00 0.03 0.21 0.03 0.13 0.20 0.21 0.19 0.21 0.17 0.22 0.28 0.41 0.32 0.35 0.21
0.04 0.26 0.00 0.27 0.06 0.10 0.20 0.32 0.42 0.52 0.57 0.54 0.35 0.18 0.17 0.26 0.30 0.21 0.32 0.32 0.43 0.38 0.03 0.05 0.03 0.04 0.32 0.13 0.12 0.22 0.19 0.45 0.23 0.24 0.38 0.74 0.51 0.45
0.45 0.71 0.44 0.35 0.34 0.28 0.33 0.34 0.32 0.34 0.48 0.58 0.56 0.41 0.32 0.26 0.34 0.31 0.33 0.33 0.57 0.31 0.25 0.27 0.04 0.04 0.13 0.06 0.57 0.16 0.18 0.17 0.18 0.69 0.41 0.51 0.57 0.68
0.55 0.69 1.23 1.32 0.72 0.35 0.52 0.48 0.47 0.43 0.36 0.46 0.70 0.50 0.47 0.53 0.44 0.43 0.36 0.40 0.44 0.31 0.28 0.17 0.39 0.39 0.31 0.32 0.30 0.31 0.14 0.17 0.17 0.16 0.29 0.70 0.57 1.06
0.88 0.64 1.26 1.45 0.76 0.29 0.36 0.40 0.60 0.56 0.25 0.51 0.64 0.76 0.78 0.58 0.69 0.58 0.67 0.58 0.56 0.30 0.20 0.31 0.36 0.52 0.55 0.86 0.36 nan 0.53 0.22 0.45 0.50 0.32 0.52 0.89 0.68
0.38 0.59 0.81 0.81 0.39 0.30 0.30 0.39 0.49 0.77 0.79 0.63 0.91 1.28 1.45 0.99 0.96 0.61 0.53 0.78 0.51 0.28 0.24 0.14 0.23 0.30 0.58 1.39 1.83 1.06 nan 1.32 0.74 0.77 0.52 0.39 0.31 nan
0.41 0.35 0.68 0.48 0.50 0.41 1.17 1.34 1.68 1.55 1.59 2.06 1.19 1.22 2.78 0.76 0.87 0.63 0.68 0.65 0.57 0.22 0.25 0.23 0.22 0.00 0.25 0.62 2.96 1.26 1.02 nan 0.42 0.43 0.35 0.51 0.33 0.22
0.78 0.50 0.50 0.54 0.77 0.71 1.52 2.38 2.14 2.10 1.48 1.10 2.12 3.19 2.95 1.29 1.08 0.91 1.15 1.12 0.42 0.50 0.26 0.20 0.12 0.11 0.37 0.38 0.55 1.68 0.65 0.66 nan nan nan nan 0.57 0.74
1.33 0.59 0.89 1.15 1.02 1.20 0.69 1.32 0.59 2.81 1.06 1.10 1.06 1.13 5.31 1.51 0.83 0.90 1.02 0.70 0.45 0.49 0.33 0.33 0.18 0.15 0.24 0.20 0.33 0.69 0.48 0.96 0.42 0.39 0.86 nan nan nan
SL_Ratio
nan nan nan nan nan nan nan nan 3.9 5.2 4.9 nan nan nan nan nan nan nan nan nan nan nan nan nan nan nan nan nan nan nan nan nan nan nan nan nan nan nan
nan nan nan nan nan nan nan nan nan 3.8 4.9 nan nan nan nan nan nan nan nan nan nan nan nan nan nan nan nan nan nan nan nan nan nan nan nan nan nan nan
nan nan nan nan nan nan nan nan nan nan 10.0 nan nan nan nan nan nan nan nan nan nan nan nan nan nan nan nan nan nan nan nan nan nan nan nan nan nan nan
nan nan nan nan nan nan nan nan nan nan nan nan nan nan nan nan nan nan nan nan nan nan nan nan nan nan nan nan nan nan nan nan nan nan nan nan nan nan
nan nan nan nan nan nan nan nan nan nan nan 5.0 nan nan nan nan nan nan nan nan nan nan nan nan nan nan nan nan nan nan nan nan nan nan nan nan nan nan
nan nan nan nan nan nan nan nan nan nan nan nan nan nan nan nan nan nan 10.0 nan nan nan nan nan nan nan nan nan nan nan nan nan nan nan nan nan nan nan
nan nan nan nan nan nan nan nan 0.0 5.0 5.3 5.5 nan nan nan nan nan 5.7 5.4 nan nan nan nan nan nan nan nan nan nan nan nan nan nan nan nan nan nan nan
nan nan nan nan nan nan nan nan nan 5.4 5.9 5.8 5.8 5.8 nan nan 6.7 nan nan nan 6.3 0.0 nan 3.6 nan nan nan 4.9 nan nan nan nan nan nan nan nan nan nan
nan nan nan nan nan nan nan nan nan nan nan 5.7 5.6 6.3 6.3 nan nan nan 5.4 6.0 7.3 nan 3.7 3.6 3.1 3.0 3.8 nan nan nan nan nan nan nan nan nan nan nan
nan nan nan nan nan nan 5.3 5.4 nan nan nan nan nan nan nan nan nan nan 7.0 7.0 3.6 nan nan 4.9 3.1 3.5 3.2 3.0 nan nan nan nan nan nan nan nan nan nan
nan nan nan nan nan nan 5.0 4.7 nan nan nan nan nan nan nan nan nan 5.0 4.6 5.1 5.1 3.2 3.0 4.3 3.6 3.7 3.3 2.9 2.5 nan nan nan nan nan nan nan nan nan
nan nan nan nan nan nan 5.3 5.2 5.9 5.8 nan nan nan nan nan nan nan nan 5.0 5.8 5.5 5.6 3.5 5.8 4.1 5.3 4.9 3.7 3.2 2.8 2.6 nan nan nan nan nan nan 2.5
4.4 4.3 4.1 nan nan nan nan 5.3 6.2 5.0 5.2 4.7 4.3 nan nan nan nan nan nan 4.4 5.2 5.2 nan 6.5 5.4 5.1 5.8 5.0 3.6 3.5 3.3 3.1 2.8 2.5 nan nan nan 2.6
4.8 4.5 4.6 nan nan nan 4.4 nan nan 4.7 5.0 5.4 5.2 5.0 4.7 4.4 nan 4.7 4.6 nan nan 6.0 5.6 5.7 5.9 6.1 6.0 5.1 4.9 3.9 3.8 3.8 3.7 3.2 3.0 nan nan nan
4.6 4.7 nan nan nan 3.0 nan nan 2.9 5.1 5.4 6.1 5.7 5.4 5.0 4.9 4.9 4.3 4.3 4.4 4.2 4.9 nan 5.0 4.8 5.2 4.6 5.3 5.5 4.5 4.6 3.9 3.9 4.0 3.9 3.9 4.2 3.6
4.6 4.7 nan 4.3 3.1 4.6 4.8 4.8 4.9 5.1 5.6 6.0 5.9 5.3 4.7 4.6 4.6 4.5 4.7 4.6 4.9 5.0 4.6 4.8 5.0 5.2 4.6 4.5 5.0 5.0 4.6 5.1 4.1 3.8 3.9 4.2 4.1 3.9
4.8 5.3 5.5 5.7 5.7 5.2 4.9 4.9 4.9 5.1 5.4 5.7 5.9 5.8 5.4 5.0 4.9 4.5 4.8 4.9 5.1 5.0 4.8 4.4 4.5 4.4 4.1 5.2 5.1 4.6 4.7 4.5 4.1 5.0 4.5 5.3 4.7 4.7
5.9 6.2 6.2 6.2 6.5 5.7 5.8 5.6 5.5 5.1 5.5 5.5 5.6 5.6 5.8 5.4 5.4 4.8 4.6 5.0 5.4 5.1 5.1 4.6 4.8 4.8 4.7 4.6 4.6 5.2 4.6 4.5 4.4 4.4 4.5 5.4 5.7 5.6
6.3 6.3 6.5 6.6 6.4 6.1 6.3 6.3 6.4 5.8 6.4 5.8 5.6 5.8 6.0 5.9 5.7 5.2 5.3 5.2 5.2 5.1 4.9 4.7 4.9 5.1 6.0 7.0 5.4 nan 5.1 4.6 4.7 4.7 4.4 5.1 5.7 5.6
6.0 6.5 6.3 6.3 6.3 6.3 6.4 6.9 6.6 6.3 6.4 6.2 6.1 6.5 6.8 6.6 5.9 6.0 5.6 6.3 5.6 5.2 5.0 4.6 4.6 4.8 6.4 7.4 6.0 5.5 nan 5.5 5.2 5.2 4.9 4.4 4.6 nan
6.5 6.4 6.3 6.3 6.4 6.4 6.5 6.8 7.2 7.1 7.0 7.2 6.6 6.8 6.5 6.2 6.1 5.6 6.0 5.0 4.6 5.1 5.4 5.2 5.0 nan 5.2 5.4 5.8 5.4 5.2 nan 5.0 5.2 5.1 4.9 5.0 4.8
6.9 7.1 6.6 6.4 6.7 6.9 6.7 6.9 6.8 6.8 7.0 7.0 7.5 7.0 6.8 7.1 7.6 7.5 7.2 6.8 5.8 5.8 5.8 5.3 4.9 4.7 4.9 5.7 6.1 5.5 5.3 5.1 nan nan nan nan 5.7 6.5
7.2 7.0 6.9 6.7 6.3 6.4 6.6 6.9 6.7 6.5 7.0 7.4 7.3 7.3 6.8 8.2 6.9 7.0 6.9 6.2 5.8 6.2 5.7 5.8 5.2 5.0 5.3 5.5 5.6 5.8 6.0 5.4 5.1 5.2 5.4 nan nan nan